Location: Observatoire POLARIS
(46.3550°N, 73.3861°W)
Time: 17:05:07
(UTC-05:00)

ISS - Visible Passes

Search period start: 19 February 2018 00:00
Search period end: 01 March 2018 00:00
Orbit: 403 x 407 km, 51.6° (Epoch: 20 February)

Date Brightness Start Highest point End Pass type
(mag) Time Alt. Az. Time Alt. Az. Time Alt. Az.
25 Feb -0.8 05:52:47 10° SSE 05:54:34 14° SE 05:56:21 10° E visible
27 Feb -1.9 05:43:20 10° SSW 05:46:12 28° SE 05:49:05 10° E visible
28 Feb -1.2 04:51:53 10° S 04:54:06 17° SE 04:56:17 10° E visible
